Location: Janeiro
(34.9957°N, 76.7652°W)
Time: 03:13:26
(UTC+00:00)

Meteor 2-4 Rocket - Pass Details

Date: 14 December 2019
Orbit: 798 x 909 km, 81.2° (Epoch: 20 January)

Event Time Altitude Azimuth Distance (km) Brightness Sun altitude
Rises 23:39:09 0° 190° (S) 3,517 7.3 -20.4°
Reaches altitude 10° 23:41:37 10° 192° (SSW) 2,574 6.5 -20.9°
Maximum altitude 23:47:30 78° 278° (W) 913 3.9 -22.0°
Drops below altitude 10° 23:53:18 10° 5° (N) 2,533 6.0 -23.2°
Enters shadow 23:53:40 - 6° (N) 2,673 6.1 -23.3°
